Wind_Speed
21 21 21 22 23 23 23 23 22 21 21 22 22 23 23 23 22 21 21 21 20 20 20 19 19 19 19 19 20 19 19 18 18 18 17 17 17 18 17 18 18 18 18
22 22 23 23 23 24 24 24 24 23 22 23 23 23 24 24 24 23 23 22 21 22 22 22 21 20 21 21 22 22 21 21 20 20 20 20 20 19 19 20 20 20 21
23 23 24 25 25 25 25 26 25 25 25 26 26 24 24 25 25 25 25 24 22 22 24 23 22 22 23 23 23 23 23 23 22 22 22 21 21 22 22 22 22 23 23
24 25 25 26 26 27 26 26 25 26 27 27 26 25 26 26 26 27 26 25 24 23 24 25 24 24 24 24 24 24 25 25 24 24 24 23 23 24 25 25 25 25 25
25 26 26 27 26 27 27 27 27 27 27 27 27 27 28 27 27 27 26 25 25 24 24 25 25 25 24 25 25 25 26 26 26 25 26 26 26 27 27 27 27 27 28
26 27 27 27 27 28 27 27 28 28 27 27 27 28 28 28 27 27 27 26 25 25 25 25 25 26 25 25 26 26 27 27 28 28 28 28 28 29 29 29 30 30 30
27 28 28 28 28 28 27 28 28 28 27 28 27 28 27 27 27 27 26 26 26 27 27 26 26 26 27 26 25 26 27 28 28 29 29 30 31 31 31 32 32 32 32
27 27 28 28 28 28 27 27 27 28 28 28 27 28 28 27 28 28 28 28 28 28 28 28 28 28 27 27 27 28 29 29 29 29 30 32 32 33 33 33 34 35 35
27 27 27 27 27 27 28 27 26 26 27 28 27 27 28 28 28 28 28 28 28 28 28 27 27 29 29 29 29 29 31 31 31 32 33 34 34 35 35 35 35 37 37
27 27 27 27 27 27 28 28 27 27 27 27 28 28 27 28 29 29 28 29 29 29 28 28 28 29 30 30 31 32 32 32 32 34 35 36 36 36 36 36 36 38 39
27 27 27 27 27 27 27 27 27 27 27 26 26 27 27 27 28 28 28 28 28 29 29 30 29 30 31 32 31 32 33 33 34 35 36 36 36 36 36 37 38 38 39
27 27 27 27 26 26 26 26 26 26 26 25 25 26 27 27 27 28 27 28 29 28 29 29 30 31 31 31 32 32 33 34 35 36 36 37 37 37 37 37 38 39 40
26 26 26 26 25 24 24 25 25 25 25 25 25 25 26 26 26 26 26 27 28 28 29 29 29 29 31 32 33 34 34 35 35 36 36 36 36 36 37 37 38 38 38
26 25 25 25 24 24 23 24 24 24 24 25 25 25 25 25 25 25 25 26 27 28 29 29 29 29 30 31 32 33 33 34 35 35 36 35 35 35 35 36 37 37 37
26 25 24 23 22 22 22 23 22 23 23 23 23 24 25 25 24 24 24 26 26 27 27 27 28 29 29 30 31 32 32 31 32 33 33 33 33 33 34 35 35 36 36
25 24 24 23 22 21 21 21 21 21 22 22 22 22 22 23 23 23 23 23 24 25 27 26 26 28 28 29 30 30 30 29 28 29 30 30 31 32 33 34 35 36 36
25 25 24 23 22 22 21 21 21 20 21 21 21 21 21 21 21 21 22 22 23 23 25 25 26 26 27 27 28 28 28 27 27 28 29 29 31 32 33 34 35 36 36
24 24 23 22 22 21 21 22 21 21 20 20 20 19 19 19 19 20 21 21 22 22 22 22 23 24 24 25 25 25 25 25 25 26 27 28 30 32 33 34 35 34 34
22 22 22 21 21 20 21 21 21 20 19 19 19 19 18 18 19 18 19 20 19 20 20 21 22 22 22 22 22 23 24 25 25 26 28 29 30 31 32 32 33 32 33
21 20 20 19 19 19 19 19 19 19 19 19 18 18 18 17 17 17 17 17 18 18 18 19 19 20 20 20 22 23 24 24 25 26 27 28 29 29 30 30 30 30 31
18 18 17 17 17 16 16 17 17 17 17 16 16 16 16 15 15 15 16 16 16 16 16 17 18 18 19 19 20 21 22 23 24 25 25 26 26 27 27 27 27 28 28
15 15 15 16 16 15 15 14 15 15 15 14 14 14 15 14 13 13 14 14 14 14 14 15 16 17 17 18 19 20 21 22 22 23 23 24 24 24 24 25 26 26 26
15 14 14 15 14 14 13 12 11 11 12 12 12 12 12 11 11 11 11 11 12 12 12 14 14 15 16 16 17 18 19 20 20 20 20 20 21 21 22 23 23 23 23
13 13 14 13 12 11 10 10 10 9 9 8 8 8 8 7 8 8 9 10 10 11 11 12 13 13 13 14 14 15 16 16 17 17 18 18 19 19 20 20 20 20 20
12 12 11 11 9 9 8 8 8 7 6 6 6 6 6 5 5 6 6 7 8 9 9 10 10 10 10 11 12 12 13 13 14 15 15 16 16 16 17 17 17 17 18
9 9 8 7 7 6 6 5 4 4 4 4 3 3 3 2 2 3 4 5 6 6 7 7 7 8 9 10 10 10 11 12 12 13 13 14 14 15 15 16 16 16 17
Wind_Direction
262 263 266 268 269 270 272 274 279 277 272 267 266 265 262 259 259 258 258 259 257 256 255 250 251 250 250 251 252 252 254 255 256 258 260 261 262 264 265 265 266 266 268
263 266 266 268 269 272 274 274 277 274 271 269 268 266 262 259 259 259 258 257 258 257 257 253 252 251 251 252 253 254 255 255 256 258 261 262 263 264 265 266 267 268 269
265 268 269 270 271 273 274 274 274 273 271 271 267 265 264 263 260 259 257 256 255 257 257 254 253 253 254 253 253 254 255 255 256 258 261 263 263 264 266 268 269 269 270
270 269 270 272 273 274 273 273 274 275 272 270 267 265 264 263 260 259 260 257 255 255 254 251 252 255 253 254 253 253 255 255 256 258 260 263 264 266 267 268 270 271 271
273 271 272 274 276 277 275 274 275 276 273 270 268 267 265 262 259 259 261 260 258 256 254 252 254 256 256 255 255 255 254 256 257 258 260 263 265 267 269 268 270 272 273
276 276 275 275 276 278 277 276 278 278 274 272 270 269 265 262 258 258 259 258 258 256 255 255 255 256 257 256 256 256 256 258 259 259 262 264 266 268 270 269 269 271 272
276 275 274 274 274 275 275 276 278 277 276 274 271 268 265 261 259 257 258 258 256 256 256 258 257 256 254 254 256 255 256 258 261 262 263 265 267 269 270 270 269 271 273
278 277 277 275 274 274 274 276 276 276 274 273 271 266 262 260 259 259 261 261 259 258 257 257 255 255 254 254 256 258 259 260 263 263 265 267 268 271 272 271 271 272 274
282 280 278 276 275 275 275 274 274 274 274 272 269 265 260 258 258 259 260 260 260 259 258 256 257 257 256 257 260 261 260 261 262 264 266 267 268 269 270 272 273 273 274
283 283 280 277 275 274 274 272 272 272 272 271 268 264 261 260 260 261 260 260 259 260 259 258 258 258 260 260 261 262 262 262 263 264 265 267 269 270 270 273 274 275 275
282 282 280 278 277 275 273 272 272 272 272 272 269 265 262 263 262 264 261 260 259 261 260 258 258 260 261 261 262 261 262 263 264 266 266 268 270 271 271 273 274 275 276
282 281 280 279 278 275 273 272 271 271 271 270 269 268 266 266 266 265 262 260 260 260 259 257 257 259 261 261 260 260 262 264 266 266 267 268 269 270 271 273 274 275 276
282 282 281 280 278 276 273 272 272 272 271 270 269 269 268 267 267 266 260 258 259 260 260 258 259 260 260 259 260 262 265 266 266 266 268 269 269 269 270 272 274 275 276
282 282 282 281 277 274 273 273 273 272 271 269 268 268 268 267 267 264 261 259 261 260 259 260 262 263 261 262 263 263 264 266 267 266 267 267 269 269 269 271 273 275 276
281 280 281 280 277 275 273 274 273 272 271 270 268 269 270 268 268 267 262 259 259 259 259 260 260 260 262 264 264 263 265 267 267 267 267 267 268 270 271 273 275 276 278
280 279 279 279 278 276 274 273 273 272 270 270 271 271 270 269 269 266 263 260 260 260 258 257 259 259 261 263 263 264 266 267 267 268 269 270 271 274 275 275 276 279 280
280 278 278 278 277 276 274 272 270 270 269 268 269 270 270 269 269 264 262 261 262 261 260 259 260 261 262 264 264 265 266 267 269 269 272 274 275 277 276 278 279 279 279
280 279 278 277 276 274 273 272 271 270 269 268 268 270 269 270 271 267 262 262 263 262 260 259 260 262 266 267 268 269 268 268 270 272 272 274 275 276 277 278 278 279 279
280 279 279 279 277 276 274 274 271 268 267 266 267 268 269 269 267 268 266 264 263 263 262 261 263 265 267 268 268 269 270 272 273 273 273 274 275 277 278 279 279 280 280
279 279 279 280 279 278 276 275 272 269 269 267 267 267 268 268 269 269 266 265 264 265 265 264 264 265 266 266 268 270 271 273 274 275 276 277 277 278 279 280 281 281 282
276 277 278 278 278 278 277 275 273 271 268 266 267 266 265 265 266 265 265 264 265 265 265 265 265 266 267 267 269 271 272 276 277 278 278 279 279 279 280 282 283 283 284
276 277 275 274 276 278 278 275 271 270 267 265 263 262 263 263 265 265 262 261 263 266 267 266 267 269 272 273 274 276 278 279 280 281 281 282 281 282 283 284 285 286 287
275 275 276 275 275 276 277 274 271 270 267 266 265 263 261 265 266 265 264 262 263 263 264 268 271 273 276 279 281 282 283 283 284 284 283 284 286 287 287 287 289 290 291
274 274 275 273 272 272 274 272 266 266 270 268 268 268 269 268 270 266 266 268 267 269 275 277 277 278 278 280 281 282 284 283 284 286 288 289 289 289 289 291 292 293 293
275 274 272 269 267 266 263 261 257 265 271 276 277 273 266 262 263 266 272 276 279 280 281 280 280 283 285 285 285 287 288 290 292 293 294 295 295 295 295 297 299 299 299
274 272 268 261 258 258 259 260 261 265 271 273 283 286 265 259 262 278 290 293 293 293 291 291 292 294 295 295 296 297 299 300 303 303 303 304 304 304 303 303 303 303 303
Height
5875 5875 5875 5875 5874 5874 5873 5873 5872 5872 5871 5871 5871 5871 5871 5872 5873 5873 5874 5873 5873 5874 5874 5874 5875 5876 5877 5878 5878 5879 5879 5879 5879 5880 5880 5880 5880 5880 5880 5880 5880 5880 5880
5870 5870 5870 5869 5869 5869 5868 5868 5867 5866 5866 5866 5866 5866 5866 5866 5867 5868 5868 5868 5868 5869 5869 5870 5870 5871 5872 5873 5874 5874 5875 5875 5875 5876 5876 5876 5876 5876 5876 5876 5876 5876 5876
5864 5865 5864 5864 5863 5863 5862 5861 5861 5860 5860 5860 5860 5860 5860 5861 5861 5862 5863 5863 5862 5863 5864 5864 5865 5866 5867 5868 5869 5869 5870 5871 5871 5871 5871 5872 5872 5872 5872 5872 5872 5871 5871
5859 5859 5859 5858 5857 5857 5856 5856 5855 5855 5855 5854 5854 5854 5855 5855 5855 5856 5857 5857 5857 5858 5858 5859 5860 5861 5861 5862 5863 5864 5865 5865 5866 5866 5867 5867 5867 5867 5867 5867 5867 5866 5866
5853 5852 5852 5852 5851 5851 5850 5850 5849 5849 5848 5848 5848 5848 5849 5849 5850 5850 5851 5851 5852 5852 5853 5854 5855 5855 5856 5857 5858 5859 5859 5860 5860 5861 5861 5862 5862 5862 5861 5861 5861 5861 5860
5847 5846 5846 5845 5845 5844 5843 5843 5843 5842 5842 5842 5842 5842 5842 5842 5843 5844 5844 5845 5846 5846 5847 5848 5849 5850 5850 5851 5852 5853 5853 5854 5854 5855 5855 5855 5856 5855 5855 5855 5855 5854 5854
5840 5840 5839 5838 5838 5838 5837 5837 5836 5835 5835 5835 5835 5835 5835 5836 5836 5837 5838 5838 5839 5840 5841 5842 5843 5844 5844 5845 5846 5846 5847 5848 5848 5849 5849 5849 5849 5849 5848 5848 5848 5847 5846
5833 5833 5832 5832 5831 5831 5830 5830 5829 5828 5828 5827 5827 5827 5828 5830 5830 5831 5832 5832 5833 5833 5834 5835 5836 5837 5838 5839 5840 5840 5841 5841 5842 5842 5842 5842 5842 5841 5841 5841 5840 5839 5839
5826 5826 5825 5825 5824 5823 5823 5823 5822 5822 5821 5821 5821 5821 5822 5823 5823 5824 5824 5825 5826 5827 5828 5829 5829 5830 5831 5832 5833 5833 5833 5834 5834 5835 5835 5834 5834 5834 5833 5833 5832 5831 5830
5820 5819 5818 5817 5817 5816 5816 5815 5815 5815 5815 5814 5814 5814 5815 5815 5816 5817 5817 5818 5818 5819 5821 5822 5823 5824 5824 5825 5825 5826 5826 5826 5826 5826 5826 5826 5826 5825 5825 5824 5823 5822 5821
5813 5812 5811 5810 5810 5809 5808 5808 5808 5807 5807 5807 5807 5806 5807 5808 5809 5809 5810 5811 5811 5812 5813 5814 5815 5816 5817 5817 5817 5818 5818 5818 5818 5818 5818 5817 5817 5817 5816 5815 5814 5813 5811
5806 5805 5804 5803 5802 5801 5801 5801 5800 5800 5800 5800 5800 5800 5800 5800 5801 5801 5802 5803 5804 5805 5806 5807 5807 5808 5808 5809 5810 5810 5810 5810 5810 5810 5809 5809 5808 5808 5807 5806 5805 5803 5802
5799 5798 5797 5796 5795 5794 5794 5794 5793 5793 5793 5793 5792 5793 5793 5793 5793 5794 5794 5795 5796 5797 5798 5799 5800 5800 5800 5801 5802 5802 5802 5802 5802 5801 5800 5800 5800 5799 5798 5796 5795 5794 5792
5792 5791 5790 5788 5788 5786 5786 5787 5786 5785 5786 5786 5786 5786 5786 5786 5786 5787 5787 5788 5788 5789 5790 5791 5791 5792 5792 5793 5793 5794 5794 5793 5793 5793 5792 5791 5791 5790 5788 5787 5786 5784 5783
5785 5784 5783 5782 5781 5780 5780 5780 5779 5779 5779 5779 5779 5779 5779 5779 5779 5779 5780 5781 5782 5782 5783 5784 5784 5784 5785 5785 5785 5785 5785 5785 5785 5784 5784 5783 5782 5781 5780 5778 5777 5775 5773
5778 5777 5776 5775 5775 5774 5774 5773 5773 5773 5773 5773 5773 5773 5773 5772 5772 5772 5773 5773 5774 5775 5776 5776 5777 5777 5777 5778 5778 5777 5777 5777 5777 5776 5775 5774 5773 5772 5771 5769 5767 5766 5764
5771 5770 5769 5769 5768 5768 5767 5767 5766 5766 5766 5766 5766 5766 5766 5766 5766 5766 5767 5767 5768 5768 5769 5769 5769 5770 5770 5770 5770 5770 5769 5769 5768 5768 5767 5766 5765 5763 5762 5760 5758 5756 5754
5764 5763 5763 5762 5761 5761 5761 5760 5760 5760 5760 5760 5760 5760 5760 5760 5760 5760 5761 5761 5762 5762 5762 5762 5763 5763 5763 5763 5762 5762 5762 5761 5761 5760 5759 5758 5756 5755 5753 5751 5749 5746 5744
5758 5757 5756 5755 5755 5754 5754 5754 5754 5754 5754 5754 5754 5754 5754 5754 5755 5755 5755 5755 5756 5756 5756 5756 5756 5756 5756 5756 5756 5755 5755 5754 5753 5752 5751 5749 5748 5746 5744 5742 5740 5737 5735
5752 5751 5750 5750 5749 5748 5748 5748 5748 5748 5748 5748 5748 5749 5749 5749 5749 5749 5749 5750 5750 5750 5750 5750 5750 5750 5750 5749 5749 5748 5748 5747 5746 5744 5743 5741 5739 5737 5735 5733 5731 5729 5727
5746 5746 5745 5744 5743 5743 5742 5742 5742 5742 5742 5743 5743 5743 5743 5744 5744 5744 5744 5744 5745 5745 5745 5745 5745 5744 5744 5743 5743 5742 5741 5740 5738 5737 5735 5733 5731 5729 5727 5725 5723 5721 5719
5741 5741 5740 5739 5739 5738 5738 5737 5737 5737 5737 5738 5738 5738 5738 5739 5739 5739 5739 5739 5740 5740 5740 5740 5739 5739 5738 5737 5737 5736 5734 5733 5732 5730 5729 5727 5725 5723 5720 5719 5716 5714 5712
5736 5736 5735 5735 5734 5734 5733 5733 5733 5733 5733 5733 5734 5734 5734 5734 5734 5734 5735 5735 5735 5735 5735 5735 5734 5733 5733 5732 5731 5730 5728 5727 5726 5724 5722 5721 5719 5716 5714 5712 5710 5708 5706
5732 5732 5731 5731 5731 5730 5730 5730 5730 5730 5730 5730 5730 5730 5731 5731 5731 5731 5731 5731 5731 5731 5730 5730 5729 5729 5728 5727 5726 5725 5724 5722 5721 5719 5717 5716 5714 5712 5709 5707 5705 5703 5700
5728 5728 5727 5727 5727 5727 5727 5727 5727 5727 5727 5727 5727 5728 5728 5728 5728 5728 5728 5727 5727 5727 5726 5726 5725 5725 5724 5723 5722 5721 5720 5718 5717 5715 5713 5711 5709 5707 5705 5703 5700 5698 5696
5725 5724 5724 5724 5724 5725 5725 5725 5725 5725 5725 5726 5726 5726 5726 5726 5726 5726 5725 5725 5724 5724 5723 5723 5722 5722 5721 5720 5719 5718 5716 5715 5713 5712 5709 5708 5705 5703 5701 5699 5696 5694 5692